This demonstration page uses our WeatherBlox Daily Observations layout. Learn more.

Left ArrowRight Arrow

38.20091, -84.87328

Hourly Observations for January 12, 2016

Temp ( °F °C ) Dew Point ( °F °C ) Humidity (%) Winds ( mph kmh ) Pressure ( in mb ) Visibility ( mi km ) Precip ( " mm )
12:53 am 00:53 Cloudy 32 0 15 -9.4 50 50 SSW 13 20 29.95 1014 10 16 0.00 0.03
1:53 am 01:53 Cloudy 33 0.6 15 -9.4 47 47 SSW 14 22 29.92 1013 10 16 0.00 0.00
2:53 am 02:53 Cloudy 34 1.1 15 -9.4 46 46 SW 20 31 29.91 1013 10 16 0.00 0.00
3:53 am 03:53 Cloudy 34 1.1 18 -7.8 52 52 SW 16 26 29.89 1012 10 16 0.00 0.00
4:53 am 04:53 Cloudy 34 1.1 19 -7.2 54 54 SW 15 24 29.87 1011 10 16 0.00 0.03
5:53 am 05:53 Cloudy 34 1.1 21 -6.1 59 59 SW 16 26 29.86 1011 10 16 0.00 0.00
6:53 am 06:53 Cloudy 35 1.7 23 -5 61 61 SW 20 31 29.86 1011 10 16 0.00 0.00
7:53 am 07:53 Mostly Cloudy 33 0.6 24 -4.4 70 70 SW 17 28 29.85 1011 10 16 0.00 0.00
8:45 am 08:45 Cloudy with Light Snow 34 1.1 25 -3.9 70 70 WSW 17 28 29.85 1011 2 3 0.00 0.03
8:53 am 08:53 Cloudy with Light Snow 33 0.6 25 -3.9 72 72 WSW 14 22 29.86 1011 2 3 0.00 0.03
9:26 am 09:26 Mostly Cloudy with Light Snow 32 0 28 -2.2 85 85 WSW 10 17 29.88 1012 1 1 0.00 0.03
9:34 am 09:34 Cloudy with Snow 32 0 28 -2.2 85 85 WSW 10 17 29.88 1012 1 1 0.00 0.03
9:53 am 09:53 Cloudy with Light Snow 32 0 29 -1.7 88 88 W 7 11 29.88 1012 1 1 0.00 0.03
10:17 am 10:17 Cloudy with Snow 32 0 29 -1.7 88 88 WSW 9 15 29.91 1013 1 1 0.00 0.03
10:28 am 10:28 Cloudy with Snow 32 0 29 -1.7 88 88 WSW 13 20 29.91 1013 1 1 0.00 0.03
10:42 am 10:42 Cloudy with Light Snow 32 0 29 -1.7 88 88 WSW 12 19 29.91 1013 1 2 0.01 0.25
10:46 am 10:46 Cloudy with Light Snow 32 0 29 -1.7 88 88 WSW 13 20 29.91 1013 1 2 0.01 0.25
10:53 am 10:53 Cloudy with Light Snow 33 0.6 29 -1.7 85 85 WSW 15 24 29.90 1013 3 4 0.02 0.51
10:55 am 10:55 Cloudy with Light Snow 33 0.6 29 -1.7 85 85 WSW 15 24 29.91 1013 3 5 0.00 0.03
10:58 am 10:58 Cloudy with Light Snow 33 0.6 29 -1.7 85 85 WSW 14 22 29.91 1013 6 10 0.01 0.25
11:53 am 11:53 Mostly Cloudy 35 1.7 29 -1.7 78 78 W 14 22 29.90 1013 10 16 0.03 0.76
12:00 pm 12:00 Windy with Snow Likely 34 1.1 28 -2.2 79 79 WNW 21 33 29.94 1014 1 1 0.00 0.03
12:07 pm 12:07 Cloudy with Snow 32 0 28 -2.2 85 85 W 16 26 29.94 1014 0 0 0.00 0.03
12:14 pm 12:14 Windy with Snow Likely 33 0.6 26 -3.3 75 75 W 21 33 29.94 1014 2 3 0.00 0.03
12:16 pm 12:16 Mostly Cloudy with Haze 33 0.6 25 -3.9 72 72 W 14 22 29.94 1014 6 10 0.00 0.03
12:53 pm 12:53 Partly Cloudy 35 1.7 23 -5 61 61 WNW 18 30 29.95 1014 10 16 0.00 0.03
1:53 pm 13:53 Sunny 32 0 13 -10.6 45 45 W 23 37 29.99 1016 10 16 0.00 0.00
2:53 pm 14:53 Sunny 29 -1.7 10 -12.2 45 45 WNW 15 24 30.03 1017 10 16 0.00 0.00
3:53 pm 15:53 Sunny 27 -2.8 5 -15 39 39 WNW 13 20 30.09 1019 10 16 0.00 0.00
4:53 pm 16:53 Sunny 26 -3.3 8 -13.3 46 46 WNW 14 22 30.13 1020 10 16 0.00 0.00
5:53 pm 17:53 Clear 22 -5.6 5 -15 48 48 NW 9 15 30.16 1021 10 16 0.00 0.00
6:53 pm 18:53 Clear 20 -6.7 4 -15.6 50 50 NW 10 17 30.20 1023 10 16 0.00 0.00
7:53 pm 19:53 Clear 18 -7.8 5 -15 57 57 WNW 6 9 30.23 1024 10 16 0.00 0.00
8:53 pm 20:53 Clear 17 -8.3 6 -14.4 62 62 WNW 7 11 30.24 1024 10 16 0.00 0.00
9:53 pm 21:53 Clear 17 -8.3 6 -14.4 62 62 W 5 7 30.26 1025 10 16 0.00 0.00
10:53 pm 22:53 Clear 16 -8.9 5 -15 62 62 VRB 3 6 30.26 1025 10 16 0.00 0.00
11:53 pm 23:53 Clear 15 -9.4 5 -15 64 64 WNW 3 6 30.25 1025 10 16 0.00 0.00

Powered by AerisWeather